Time,TemperatureF,DewpointF,PressureIn,WindDirection,WindDirectionDegrees,WindSpeedMPH,WindSpeedGustMPH,Humidity,HourlyPrecipIn,Conditions,Clouds,dailyrainin,SoftwareType,DateUTC
2013-04-13 00:04:00,40.5,37.2,29.83,WSW,238,3.0,6.0,88,0.14,,,0.28,Wunderground v.1.15,2013-04-13 07:04:00,
2013-04-13 00:09:00,40.4,37.4,29.84,SE,144,5.0,5.0,89,0.25,,,0.30,Wunderground v.1.15,2013-04-13 07:09:00,
2013-04-13 00:14:00,40.3,37.3,29.84,ESE,114,4.0,5.0,89,0.20,,,0.31,Wunderground v.1.15,2013-04-13 07:14:00,
2013-04-13 00:20:00,40.0,36.7,29.85,SSE,147,12.0,12.0,88,0.22,,,0.33,Wunderground v.1.15,2013-04-13 07:20:00,
2013-04-13 00:25:00,39.8,36.2,29.85,ESE,105,2.0,12.0,87,0.22,,,0.35,Wunderground v.1.15,2013-04-13 07:25:00,
2013-04-13 00:30:00,39.9,36.3,29.85,ESE,106,3.0,5.0,87,0.17,,,0.36,Wunderground v.1.15,2013-04-13 07:30:00,
2013-04-13 00:37:00,40.1,36.5,29.85,ESE,103,5.0,9.0,87,0.22,,,0.39,Wunderground v.1.15,2013-04-13 07:37:00,
2013-04-13 00:43:00,40.3,36.7,29.85,East,94,3.0,5.0,87,0.24,,,0.41,Wunderground v.1.15,2013-04-13 07:43:00,
2013-04-13 00:49:00,40.4,36.8,29.85,ENE,65,3.0,3.0,87,0.15,,,0.42,Wunderground v.1.15,2013-04-13 07:49:00,
2013-04-13 00:55:00,40.4,36.8,29.86,East,80,2.0,4.0,87,0.08,,,0.43,Wunderground v.1.15,2013-04-13 07:55:00,
2013-04-13 01:00:00,40.4,36.8,29.86,ENE,76,3.0,4.0,87,0.08,,,0.43,Wunderground v.1.15,2013-04-13 08:00:00,
2013-04-13 01:06:00,40.4,36.8,29.85,ESE,109,4.0,4.0,87,0.07,,,0.44,Wunderground v.1.15,2013-04-13 08:06:00,
2013-04-13 01:12:00,40.3,36.7,29.85,ESE,119,4.0,8.0,87,0.05,,,0.44,Wunderground v.1.15,2013-04-13 08:12:00,
2013-04-13 01:18:00,40.1,36.8,29.86,SE,140,9.0,9.0,88,0.00,,,0.44,Wunderground v.1.15,2013-04-13 08:18:00,
2013-04-13 01:23:00,40.1,36.8,29.87,ENE,71,5.0,5.0,88,0.00,,,0.44,Wunderground v.1.15,2013-04-13 08:23:00,
2013-04-13 01:29:00,40.0,36.7,29.86,East,98,7.0,7.0,88,0.00,,,0.44,Wunderground v.1.15,2013-04-13 08:29:00,
2013-04-13 01:35:00,39.7,36.4,29.87,East,82,7.0,7.0,88,0.00,,,0.44,Wunderground v.1.15,2013-04-13 08:35:00,
2013-04-13 01:40:00,39.4,36.1,29.87,North,351,1.0,3.0,88,0.00,,,0.44,Wunderground v.1.15,2013-04-13 08:40:00,
2013-04-13 01:46:00,39.1,35.8,29.87,ESE,108,0.0,7.0,88,0.00,,,0.44,Wunderground v.1.15,2013-04-13 08:46:00,
2013-04-13 01:51:00,39.0,35.7,29.88,NW,311,0.0,2.0,88,0.00,,,0.44,Wunderground v.1.15,2013-04-13 08:51:00,
2013-04-13 01:56:00,38.9,35.6,29.88,East,82,0.0,3.0,88,0.00,,,0.44,Wunderground v.1.15,2013-04-13 08:56:00,
2013-04-13 02:01:00,38.9,35.6,29.88,East,84,0.0,1.0,88,0.00,,,0.44,Wunderground v.1.15,2013-04-13 09:01:00,
2013-04-13 02:06:00,38.8,35.6,29.88,ENE,73,1.0,3.0,88,0.00,,,0.44,Wunderground v.1.15,2013-04-13 09:06:00,
2013-04-13 02:12:00,38.8,35.6,29.88,NE,44,2.0,5.0,88,0.00,,,0.44,Wunderground v.1.15,2013-04-13 09:12:00,
2013-04-13 02:17:00,38.5,35.3,29.88,East,95,1.0,6.0,88,0.00,,,0.44,Wunderground v.1.15,2013-04-13 09:17:00,
2013-04-13 02:22:00,38.3,35.1,29.88,ENE,75,2.0,2.0,88,0.00,,,0.44,Wunderground v.1.15,2013-04-13 09:22:00,
2013-04-13 02:27:00,38.1,34.9,29.88,East,85,0.0,4.0,88,0.00,,,0.44,Wunderground v.1.15,2013-04-13 09:27:00,
2013-04-13 02:32:00,37.9,34.7,29.89,ENE,65,2.0,5.0,88,0.00,,,0.44,Wunderground v.1.15,2013-04-13 09:32:00,
2013-04-13 02:37:00,37.7,34.5,29.89,ESE,109,1.0,5.0,88,0.12,,,0.46,Wunderground v.1.15,2013-04-13 09:37:00,
2013-04-13 02:42:00,37.6,34.4,29.89,East,90,5.0,5.0,88,0.12,,,0.46,Wunderground v.1.15,2013-04-13 09:42:00,
2013-04-13 02:47:00,37.3,34.4,29.88,SE,131,2.0,5.0,89,0.06,,,0.47,Wunderground v.1.15,2013-04-13 09:47:00,
2013-04-13 02:52:00,37.2,34.3,29.88,South,182,0.0,3.0,89,0.06,,,0.47,Wunderground v.1.15,2013-04-13 09:52:00,
2013-04-13 02:57:00,37.1,34.2,29.88,SE,138,0.0,3.0,89,0.05,,,0.47,Wunderground v.1.15,2013-04-13 09:57:00,
2013-04-13 03:02:00,37.1,34.4,29.89,SSE,154,0.0,1.0,90,0.04,,,0.47,Wunderground v.1.15,2013-04-13 10:02:00,
2013-04-13 03:07:00,37.0,34.3,29.90,SSW,196,0.0,1.0,90,0.00,,,0.47,Wunderground v.1.15,2013-04-13 10:07:00,
2013-04-13 03:13:00,37.0,34.3,29.90,East,80,3.0,3.0,90,0.00,,,0.47,Wunderground v.1.15,2013-04-13 10:13:00,
2013-04-13 03:18:00,37.0,34.3,29.90,East,84,0.0,3.0,90,0.00,,,0.47,Wunderground v.1.15,2013-04-13 10:18:00,
2013-04-13 03:23:00,37.2,34.8,29.90,East,90,4.0,4.0,91,0.00,,,0.47,Wunderground v.1.15,2013-04-13 10:23:00,
2013-04-13 03:28:00,37.4,35.0,29.91,ESE,102,6.0,7.0,91,0.00,,,0.47,Wunderground v.1.15,2013-04-13 10:28:00,
2013-04-13 03:33:00,37.3,34.9,29.91,East,94,2.0,7.0,91,0.00,,,0.47,Wunderground v.1.15,2013-04-13 10:33:00,
2013-04-13 03:38:00,37.3,34.9,29.91,East,98,6.0,7.0,91,0.00,,,0.47,Wunderground v.1.15,2013-04-13 10:38:00,
2013-04-13 03:43:00,37.2,34.8,29.92,East,94,2.0,5.0,91,0.00,,,0.47,Wunderground v.1.15,2013-04-13 10:43:00,
2013-04-13 03:48:00,37.3,34.9,29.92,East,100,1.0,5.0,91,0.00,,,0.47,Wunderground v.1.15,2013-04-13 10:48:00,
2013-04-13 03:53:00,37.3,34.9,29.92,SSE,165,0.0,4.0,91,0.00,,,0.47,Wunderground v.1.15,2013-04-13 10:53:00,
2013-04-13 03:58:00,37.3,34.9,29.92,SE,144,2.0,4.0,91,0.00,,,0.47,Wunderground v.1.15,2013-04-13 10:58:00,
2013-04-13 04:03:00,37.3,34.9,29.92,SE,136,0.0,4.0,91,0.00,,,0.47,Wunderground v.1.15,2013-04-13 11:03:00,
2013-04-13 04:08:00,37.4,35.0,29.92,SE,136,0.0,4.0,91,0.00,,,0.47,Wunderground v.1.15,2013-04-13 11:08:00,
2013-04-13 04:14:00,37.5,35.1,29.93,South,186,0.0,0.0,91,0.00,,,0.47,Wunderground v.1.15,2013-04-13 11:14:00,
2013-04-13 04:19:00,37.5,35.1,29.93,South,186,0.0,0.0,91,0.00,,,0.47,Wunderground v.1.15,2013-04-13 11:19:00,
2013-04-13 04:24:00,37.5,35.1,29.93,South,186,0.0,0.0,91,0.00,,,0.47,Wunderground v.1.15,2013-04-13 11:24:00,
2013-04-13 04:29:00,37.5,35.1,29.94,East,96,0.0,0.0,91,0.00,,,0.47,Wunderground v.1.15,2013-04-13 11:29:00,
2013-04-13 04:34:00,37.6,35.5,29.94,SE,129,4.0,6.0,92,0.00,,,0.47,Wunderground v.1.15,2013-04-13 11:34:00,
2013-04-13 04:39:00,37.7,35.3,29.94,East,101,1.0,7.0,91,0.00,,,0.47,Wunderground v.1.15,2013-04-13 11:39:00,
2013-04-13 04:44:00,37.8,35.7,29.94,ESE,109,0.0,5.0,92,0.00,,,0.47,Wunderground v.1.15,2013-04-13 11:44:00,
2013-04-13 04:49:00,37.9,35.5,29.94,SSE,149,0.0,1.0,91,0.00,,,0.47,Wunderground v.1.15,2013-04-13 11:49:00,
2013-04-13 04:54:00,38.0,35.9,29.94,SSE,151,0.0,1.0,92,0.00,,,0.47,Wunderground v.1.15,2013-04-13 11:54:00,
2013-04-13 04:59:00,38.0,35.6,29.94,South,173,0.0,0.0,91,0.00,,,0.47,Wunderground v.1.15,2013-04-13 11:59:00,
2013-04-13 05:05:00,38.1,35.7,29.94,WSW,248,1.0,10.0,91,0.00,,,0.47,Wunderground v.1.15,2013-04-13 12:05:00,
2013-04-13 05:10:00,38.2,35.2,29.94,South,180,1.0,3.0,89,0.00,,,0.47,Wunderground v.1.15,2013-04-13 12:10:00,
2013-04-13 05:15:00,38.4,35.2,29.94,SSW,212,5.0,9.0,88,0.00,,,0.47,Wunderground v.1.15,2013-04-13 12:15:00,
2013-04-13 05:20:00,38.6,34.8,29.94,SW,232,6.0,11.0,86,0.00,,,0.47,Wunderground v.1.15,2013-04-13 12:20:00,
2013-04-13 05:25:00,38.6,34.5,29.94,SW,217,3.0,11.0,85,0.00,,,0.47,Wunderground v.1.15,2013-04-13 12:25:00,
2013-04-13 05:30:00,38.6,34.2,29.94,SW,216,5.0,9.0,84,0.00,,,0.47,Wunderground v.1.15,2013-04-13 12:30:00,
2013-04-13 05:35:00,38.7,34.0,29.94,NNW,338,2.0,12.0,83,0.00,,,0.47,Wunderground v.1.15,2013-04-13 12:35:00,
2013-04-13 05:40:00,38.6,33.9,29.94,SSE,150,2.0,7.0,83,0.00,,,0.47,Wunderground v.1.15,2013-04-13 12:40:00,
2013-04-13 05:45:00,38.8,34.1,29.94,SW,218,0.0,11.0,83,0.00,,,0.47,Wunderground v.1.15,2013-04-13 12:45:00,
2013-04-13 05:50:00,38.9,34.2,29.94,SW,226,5.0,10.0,83,0.00,,,0.00,Wunderground v.1.15,2013-04-13 12:50:00,
2013-04-13 05:55:00,39.0,34.3,29.94,WSW,245,5.0,13.0,83,0.00,,,0.00,Wunderground v.1.15,2013-04-13 12:55:00,
2013-04-13 06:00:00,39.2,34.2,29.94,SW,225,4.0,12.0,82,0.00,,,0.00,Wunderground v.1.15,2013-04-13 13:00:00,
2013-04-13 06:07:00,39.3,34.6,29.94,South,191,4.0,12.0,83,0.00,,,0.00,Wunderground v.1.15,2013-04-13 13:07:00,
2013-04-13 06:13:00,39.3,34.3,29.94,SW,221,7.0,9.0,82,0.00,,,0.00,Wunderground v.1.15,2013-04-13 13:13:00,
2013-04-13 06:18:00,39.3,34.6,29.94,SSW,213,0.0,10.0,83,0.00,,,0.00,Wunderground v.1.15,2013-04-13 13:18:00,
2013-04-13 06:24:00,39.3,34.3,29.94,SW,231,9.0,11.0,82,0.00,,,0.00,Wunderground v.1.15,2013-04-13 13:24:00,
2013-04-13 06:30:00,39.2,34.2,29.94,South,184,7.0,8.0,82,0.00,,,0.00,Wunderground v.1.15,2013-04-13 13:30:00,
2013-04-13 06:35:00,39.2,34.2,29.94,WSW,250,3.0,11.0,82,0.00,,,0.00,Wunderground v.1.15,2013-04-13 13:35:00,
2013-04-13 06:40:00,39.2,34.2,29.94,SSE,165,3.0,10.0,82,0.00,,,0.00,Wunderground v.1.15,2013-04-13 13:40:00,
2013-04-13 06:45:00,39.2,34.2,29.94,SSW,202,6.0,11.0,82,0.00,,,0.00,Wunderground v.1.15,2013-04-13 13:45:00,
2013-04-13 06:50:00,39.3,34.3,29.94,SSW,194,1.0,15.0,82,0.00,,,0.00,Wunderground v.1.15,2013-04-13 13:50:00,
2013-04-13 06:55:00,39.3,34.6,29.94,SW,233,3.0,15.0,83,0.00,,,0.00,Wunderground v.1.15,2013-04-13 13:55:00,
2013-04-13 07:00:00,39.3,34.3,29.94,South,181,11.0,11.0,82,0.00,,,0.00,Wunderground v.1.15,2013-04-13 14:00:00,
2013-04-13 07:05:00,39.2,34.2,29.94,South,171,6.0,13.0,82,0.00,,,0.00,Wunderground v.1.15,2013-04-13 14:05:00,
2013-04-13 07:10:00,39.1,34.1,29.94,SSE,160,2.0,5.0,82,0.00,,,0.00,Wunderground v.1.15,2013-04-13 14:10:00,
2013-04-13 07:15:00,39.0,34.0,29.94,WSW,249,1.0,14.0,82,0.00,,,0.00,Wunderground v.1.15,2013-04-13 14:15:00,
2013-04-13 07:20:00,39.0,34.0,29.94,WSW,255,5.0,13.0,82,0.00,,,0.00,Wunderground v.1.15,2013-04-13 14:20:00,
2013-04-13 07:25:00,38.9,33.9,29.95,WNW,283,7.0,14.0,82,0.00,,,0.00,Wunderground v.1.15,2013-04-13 14:25:00,
2013-04-13 07:31:00,38.9,33.9,29.95,East,86,4.0,10.0,82,0.00,,,0.00,Wunderground v.1.15,2013-04-13 14:31:00,
2013-04-13 07:36:00,39.0,34.0,29.95,SW,235,13.0,13.0,82,0.00,,,0.00,Wunderground v.1.15,2013-04-13 14:36:00,
2013-04-13 07:41:00,39.1,34.1,29.95,SSE,166,7.0,13.0,82,0.00,,,0.00,Wunderground v.1.15,2013-04-13 14:41:00,
2013-04-13 07:46:00,39.1,34.1,29.95,SE,128,5.0,13.0,82,0.00,,,0.00,Wunderground v.1.15,2013-04-13 14:46:00,
2013-04-13 07:51:00,39.2,34.2,29.95,SW,235,3.0,11.0,82,0.00,,,0.00,Wunderground v.1.15,2013-04-13 14:51:00,
2013-04-13 07:56:00,39.3,34.0,29.95,SSE,148,5.0,12.0,81,0.00,,,0.00,Wunderground v.1.15,2013-04-13 14:56:00,
2013-04-13 08:01:00,39.6,34.6,29.95,WSW,246,2.0,7.0,82,0.00,,,0.00,Wunderground v.1.15,2013-04-13 15:01:00,
2013-04-13 08:06:00,39.7,34.3,29.95,SW,232,3.0,9.0,81,0.00,,,0.00,Wunderground v.1.15,2013-04-13 15:06:00,
2013-04-13 08:12:00,39.8,34.8,29.96,SW,225,0.0,6.0,82,0.00,,,0.00,Wunderground v.1.15,2013-04-13 15:12:00,
2013-04-13 08:17:00,40.0,34.9,29.96,SW,225,1.0,13.0,82,0.00,,,0.00,Wunderground v.1.15,2013-04-13 15:17:00,
2013-04-13 08:22:00,40.3,35.2,29.95,SW,221,4.0,18.0,82,0.00,,,0.00,Wunderground v.1.15,2013-04-13 15:22:00,
2013-04-13 08:27:00,40.4,35.0,29.95,SSE,149,6.0,18.0,81,0.00,,,0.00,Wunderground v.1.15,2013-04-13 15:27:00,
2013-04-13 08:32:00,40.4,34.7,29.95,South,185,1.0,10.0,80,0.00,,,0.00,Wunderground v.1.15,2013-04-13 15:32:00,
2013-04-13 08:37:00,40.5,35.1,29.95,SSW,206,10.0,10.0,81,0.00,,,0.00,Wunderground v.1.15,2013-04-13 15:37:00,
2013-04-13 08:43:00,40.7,35.3,29.95,SSE,163,6.0,9.0,81,0.00,,,0.00,Wunderground v.1.15,2013-04-13 15:43:00,
2013-04-13 08:48:00,40.8,35.4,29.95,SW,219,3.0,10.0,81,0.00,,,0.00,Wunderground v.1.15,2013-04-13 15:48:00,
2013-04-13 08:53:00,41.0,35.6,29.95,South,188,4.0,6.0,81,0.00,,,0.00,Wunderground v.1.15,2013-04-13 15:53:00,
2013-04-13 08:58:00,41.1,35.7,29.95,SW,227,10.0,11.0,81,0.00,,,0.00,Wunderground v.1.15,2013-04-13 15:58:00,
2013-04-13 09:03:00,41.1,35.4,29.95,SW,217,7.0,13.0,80,0.00,,,0.00,Wunderground v.1.15,2013-04-13 16:03:00,
2013-04-13 09:08:00,41.3,35.9,29.96,SW,236,5.0,13.0,81,0.00,,,0.00,Wunderground v.1.15,2013-04-13 16:08:00,
2013-04-13 09:14:00,41.4,35.7,29.96,SSE,150,4.0,7.0,80,0.00,,,0.00,Wunderground v.1.15,2013-04-13 16:14:00,
2013-04-13 09:19:00,41.5,35.8,29.95,South,191,10.0,10.0,80,0.00,,,0.00,Wunderground v.1.15,2013-04-13 16:19:00,
2013-04-13 09:24:00,41.5,36.1,29.95,WSW,252,9.0,9.0,81,0.00,,,0.00,Wunderground v.1.15,2013-04-13 16:24:00,
2013-04-13 09:29:00,41.6,36.2,29.95,SSW,196,10.0,10.0,81,0.00,,,0.00,Wunderground v.1.15,2013-04-13 16:29:00,
2013-04-13 09:34:00,41.6,35.9,29.95,SSW,212,4.0,12.0,80,0.00,,,0.00,Wunderground v.1.15,2013-04-13 16:34:00,
2013-04-13 09:39:00,41.8,36.4,29.95,SW,214,0.0,13.0,81,0.00,,,0.00,Wunderground v.1.15,2013-04-13 16:39:00,
2013-04-13 09:44:00,41.9,36.2,29.95,WSW,254,10.0,15.0,80,0.00,,,0.00,Wunderground v.1.15,2013-04-13 16:44:00,
2013-04-13 09:49:00,41.9,36.2,29.95,South,169,4.0,7.0,80,0.00,,,0.00,Wunderground v.1.15,2013-04-13 16:49:00,
2013-04-13 09:54:00,42.0,36.0,29.95,WSW,244,9.0,11.0,79,0.00,,,0.00,Wunderground v.1.15,2013-04-13 16:54:00,
2013-04-13 10:00:00,42.2,36.5,29.94,SW,227,1.0,10.0,80,0.00,,,0.00,Wunderground v.1.15,2013-04-13 17:00:00,
2013-04-13 10:05:00,42.3,36.6,29.95,WNW,291,1.0,14.0,80,0.00,,,0.00,Wunderground v.1.15,2013-04-13 17:05:00,
2013-04-13 10:10:00,42.4,36.7,29.95,WNW,301,3.0,9.0,80,0.00,,,0.00,Wunderground v.1.15,2013-04-13 17:10:00,
2013-04-13 10:15:00,42.6,36.5,29.95,SW,222,4.0,12.0,79,0.00,,,0.00,Wunderground v.1.15,2013-04-13 17:15:00,
2013-04-13 10:20:00,42.6,36.5,29.95,South,188,2.0,10.0,79,0.00,,,0.00,Wunderground v.1.15,2013-04-13 17:20:00,
2013-04-13 10:25:00,42.6,36.9,29.95,SW,230,5.0,13.0,80,0.00,,,0.00,Wunderground v.1.15,2013-04-13 17:25:00,
2013-04-13 10:32:00,42.6,37.2,29.95,SSW,194,7.0,15.0,81,0.00,,,0.00,Wunderground v.1.15,2013-04-13 17:32:00,
2013-04-13 10:37:00,42.7,37.3,29.95,SSW,208,6.0,15.0,81,0.00,,,0.00,Wunderground v.1.15,2013-04-13 17:37:00,
2013-04-13 10:42:00,42.9,37.2,29.95,SSW,196,17.0,17.0,80,0.00,,,0.00,Wunderground v.1.15,2013-04-13 17:42:00,
2013-04-13 10:47:00,43.2,37.4,29.94,WSW,238,4.0,17.0,80,0.00,,,0.00,Wunderground v.1.15,2013-04-13 17:47:00,
2013-04-13 10:52:00,43.3,37.5,29.95,SW,232,12.0,12.0,80,0.00,,,0.00,Wunderground v.1.15,2013-04-13 17:52:00,
2013-04-13 10:57:00,43.4,37.3,29.95,SW,223,6.0,12.0,79,0.00,,,0.00,Wunderground v.1.15,2013-04-13 17:57:00,
2013-04-13 11:02:00,43.7,37.6,29.95,ESE,123,9.0,11.0,79,0.00,,,0.00,Wunderground v.1.15,2013-04-13 18:02:00,
2013-04-13 11:07:00,43.8,37.4,29.95,West,281,5.0,17.0,78,0.00,,,0.00,Wunderground v.1.15,2013-04-13 18:07:00,
2013-04-13 11:12:00,43.5,37.4,29.95,SSW,213,11.0,24.0,79,0.00,,,0.00,Wunderground v.1.15,2013-04-13 18:12:00,
2013-04-13 11:17:00,43.6,37.5,29.95,SW,234,10.0,24.0,79,0.00,,,0.00,Wunderground v.1.15,2013-04-13 18:17:00,
2013-04-13 11:24:00,43.5,37.4,29.95,SSE,149,10.0,16.0,79,0.00,,,0.00,Wunderground v.1.15,2013-04-13 18:24:00,
2013-04-13 11:27:00,43.6,37.5,29.95,WSW,239,7.0,16.0,79,0.00,,,0.00,Wunderground v.1.15,2013-04-13 18:27:00,
2013-04-13 11:32:00,44.0,37.9,29.95,SSW,199,2.0,12.0,79,0.00,,,0.00,Wunderground v.1.15,2013-04-13 18:32:00,
2013-04-13 11:37:00,44.2,37.8,29.95,SSW,209,2.0,12.0,78,0.00,,,0.00,Wunderground v.1.15,2013-04-13 18:37:00,
2013-04-13 11:42:00,44.2,37.8,29.96,NW,310,0.0,9.0,78,0.00,,,0.00,Wunderground v.1.15,2013-04-13 18:42:00,
2013-04-13 11:47:00,44.3,37.9,29.95,SW,233,5.0,16.0,78,0.00,,,0.00,Wunderground v.1.15,2013-04-13 18:47:00,
2013-04-13 11:52:00,44.3,37.5,29.95,SSW,205,10.0,14.0,77,0.00,,,0.00,Wunderground v.1.15,2013-04-13 18:52:00,
2013-04-13 11:57:00,44.6,38.2,29.95,SW,221,3.0,14.0,78,0.00,,,0.00,Wunderground v.1.15,2013-04-13 18:57:00,
2013-04-13 12:02:00,44.7,37.9,29.95,West,261,10.0,16.0,77,0.00,,,0.00,Wunderground v.1.15,2013-04-13 19:02:00,
2013-04-13 12:07:00,44.9,38.5,29.96,SW,225,6.0,16.0,78,0.00,,,0.00,Wunderground v.1.15,2013-04-13 19:07:00,
2013-04-13 12:12:00,45.0,38.6,29.96,WSW,250,6.0,7.0,78,0.00,,,0.00,Wunderground v.1.15,2013-04-13 19:12:00,
2013-04-13 12:17:00,45.1,38.3,29.95,SSW,197,11.0,11.0,77,0.00,,,0.00,Wunderground v.1.15,2013-04-13 19:17:00,
2013-04-13 12:22:00,45.4,38.3,29.95,WSW,257,1.0,12.0,76,0.00,,,0.00,Wunderground v.1.15,2013-04-13 19:22:00,
2013-04-13 12:27:00,46.1,39.0,29.96,NW,323,3.0,15.0,76,0.00,,,0.00,Wunderground v.1.15,2013-04-13 19:27:00,
2013-04-13 12:32:00,46.3,38.5,29.96,SSW,198,4.0,12.0,74,0.00,,,0.00,Wunderground v.1.15,2013-04-13 19:32:00,
2013-04-13 12:38:00,46.8,39.3,29.95,SSW,198,2.0,12.0,75,0.00,,,0.00,Wunderground v.1.15,2013-04-13 19:38:00,
2013-04-13 12:43:00,46.4,38.9,29.95,SW,215,7.0,16.0,75,0.00,,,0.00,Wunderground v.1.15,2013-04-13 19:43:00,
2013-04-13 12:48:00,46.5,39.3,29.96,SSW,196,1.0,18.0,76,0.00,,,0.00,Wunderground v.1.15,2013-04-13 19:48:00,
2013-04-13 12:53:00,46.6,39.4,29.96,SW,227,10.0,13.0,76,0.00,,,0.00,Wunderground v.1.15,2013-04-13 19:53:00,
2013-04-13 12:58:00,47.0,39.8,29.95,WSW,237,10.0,13.0,76,0.00,,,0.00,Wunderground v.1.15,2013-04-13 19:58:00,
2013-04-13 13:03:00,47.1,39.2,29.95,WSW,238,2.0,9.0,74,0.00,,,0.00,Wunderground v.1.15,2013-04-13 20:03:00,
2013-04-13 13:08:00,47.0,39.5,29.95,West,263,9.0,10.0,75,0.00,,,0.00,Wunderground v.1.15,2013-04-13 20:08:00,
2013-04-13 13:13:00,46.3,39.5,29.95,SSW,211,12.0,15.0,77,0.00,,,0.00,Wunderground v.1.15,2013-04-13 20:13:00,
2013-04-13 13:18:00,46.1,39.3,29.95,SW,214,11.0,15.0,77,0.00,,,0.00,Wunderground v.1.15,2013-04-13 20:18:00,
2013-04-13 13:23:00,46.1,39.3,29.95,SSE,157,7.0,24.0,77,0.00,,,0.00,Wunderground v.1.15,2013-04-13 20:23:00,
2013-04-13 13:28:00,46.7,39.9,29.95,SW,234,7.0,24.0,77,0.00,,,0.00,Wunderground v.1.15,2013-04-13 20:28:00,
2013-04-13 13:33:00,47.1,39.6,29.95,SSW,194,6.0,20.0,75,0.00,,,0.00,Wunderground v.1.15,2013-04-13 20:33:00,
2013-04-13 13:38:00,46.9,39.4,29.95,SE,125,5.0,20.0,75,0.00,,,0.00,Wunderground v.1.15,2013-04-13 20:38:00,
2013-04-13 13:43:00,46.8,39.6,29.95,SE,140,3.0,14.0,76,0.00,,,0.00,Wunderground v.1.15,2013-04-13 20:43:00,
2013-04-13 13:48:00,46.8,39.6,29.95,SE,134,4.0,18.0,76,0.00,,,0.00,Wunderground v.1.15,2013-04-13 20:48:00,
2013-04-13 13:53:00,47.1,39.9,29.95,WNW,293,0.0,15.0,76,0.00,,,0.00,Wunderground v.1.15,2013-04-13 20:53:00,
2013-04-13 13:58:00,46.7,39.5,29.95,WSW,240,6.0,19.0,76,0.00,,,0.00,Wunderground v.1.15,2013-04-13 20:58:00,
2013-04-13 14:03:00,46.2,39.7,29.95,South,186,1.0,18.0,78,0.00,,,0.00,Wunderground v.1.15,2013-04-13 21:03:00,
2013-04-13 14:08:00,46.4,39.6,29.95,South,188,12.0,19.0,77,0.00,,,0.00,Wunderground v.1.15,2013-04-13 21:08:00,
2013-04-13 14:13:00,46.8,39.6,29.95,SE,142,13.0,15.0,76,0.00,,,0.00,Wunderground v.1.15,2013-04-13 21:13:00,
2013-04-13 14:18:00,46.6,39.4,29.95,SSE,149,5.0,19.0,76,0.00,,,0.00,Wunderground v.1.15,2013-04-13 21:18:00,
2013-04-13 14:23:00,46.6,39.4,29.95,SSW,200,5.0,16.0,76,0.00,,,0.00,Wunderground v.1.15,2013-04-13 21:23:00,
2013-04-13 14:28:00,46.5,39.7,29.95,SW,217,10.0,18.0,77,0.00,,,0.00,Wunderground v.1.15,2013-04-13 21:28:00,
2013-04-13 14:33:00,46.3,39.8,29.96,SW,234,4.0,11.0,78,0.00,,,0.00,Wunderground v.1.15,2013-04-13 21:33:00,
2013-04-13 14:38:00,46.2,39.7,29.96,WNW,282,2.0,16.0,78,0.00,,,0.00,Wunderground v.1.15,2013-04-13 21:38:00,
2013-04-13 14:43:00,46.3,39.8,29.96,South,183,6.0,13.0,78,0.00,,,0.00,Wunderground v.1.15,2013-04-13 21:43:00,
2013-04-13 14:48:00,46.4,40.6,29.96,SSW,201,9.0,15.0,80,0.00,,,0.00,Wunderground v.1.15,2013-04-13 21:48:00,
2013-04-13 14:53:00,46.3,40.5,29.96,WSW,248,5.0,15.0,80,0.00,,,0.01,Wunderground v.1.15,2013-04-13 21:53:00,
2013-04-13 14:59:00,46.0,40.2,29.96,WSW,251,9.0,17.0,80,0.00,,,0.01,Wunderground v.1.15,2013-04-13 21:59:00,
2013-04-13 15:04:00,45.9,40.4,29.96,SSE,155,4.0,10.0,81,0.00,,,0.01,Wunderground v.1.15,2013-04-13 22:04:00,
2013-04-13 15:09:00,46.0,40.5,29.96,SW,229,4.0,10.0,81,0.00,,,0.01,Wunderground v.1.15,2013-04-13 22:09:00,
2013-04-13 15:14:00,46.4,40.6,29.96,SW,225,10.0,13.0,80,0.00,,,0.01,Wunderground v.1.15,2013-04-13 22:14:00,
2013-04-13 15:19:00,46.7,40.9,29.96,SE,144,3.0,6.0,80,0.00,,,0.01,Wunderground v.1.15,2013-04-13 22:19:00,
2013-04-13 15:24:00,46.9,41.1,29.96,South,188,4.0,15.0,80,0.00,,,0.01,Wunderground v.1.15,2013-04-13 22:24:00,
2013-04-13 15:29:00,47.3,41.1,29.96,SSW,194,17.0,18.0,79,0.00,,,0.01,Wunderground v.1.15,2013-04-13 22:29:00,
2013-04-13 15:34:00,47.3,40.8,29.96,South,180,4.0,18.0,78,0.00,,,0.01,Wunderground v.1.15,2013-04-13 22:34:00,
2013-04-13 15:39:00,47.2,41.0,29.96,SE,134,10.0,12.0,79,0.00,,,0.01,Wunderground v.1.15,2013-04-13 22:39:00,
2013-04-13 15:44:00,46.8,41.0,29.95,SW,235,11.0,14.0,80,0.00,,,0.01,Wunderground v.1.15,2013-04-13 22:44:00,
2013-04-13 15:49:00,46.5,41.6,29.95,SW,226,5.0,7.0,83,0.00,,,0.02,Wunderground v.1.15,2013-04-13 22:49:00,
2013-04-13 15:54:00,46.7,41.8,29.95,South,181,3.0,12.0,83,0.00,,,0.02,Wunderground v.1.15,2013-04-13 22:54:00,
2013-04-13 15:59:00,46.8,41.6,29.96,SSW,194,6.0,8.0,82,0.00,,,0.02,Wunderground v.1.15,2013-04-13 22:59:00,
2013-04-13 16:04:00,46.9,41.7,29.95,SW,219,1.0,14.0,82,0.00,,,0.02,Wunderground v.1.15,2013-04-13 23:04:00,
2013-04-13 16:09:00,47.0,41.8,29.95,SE,135,5.0,11.0,82,0.00,,,0.02,Wunderground v.1.15,2013-04-13 23:09:00,
2013-04-13 16:14:00,46.9,41.7,29.96,WNW,286,12.0,12.0,82,0.00,,,0.02,Wunderground v.1.15,2013-04-13 23:14:00,
2013-04-13 16:19:00,46.6,41.1,29.96,SSW,207,5.0,9.0,81,0.00,,,0.02,Wunderground v.1.15,2013-04-13 23:19:00,
2013-04-13 16:24:00,46.5,41.0,29.96,SW,214,1.0,13.0,81,0.00,,,0.02,Wunderground v.1.15,2013-04-13 23:24:00,
2013-04-13 16:29:00,46.5,40.7,29.96,South,173,0.0,2.0,80,0.00,,,0.02,Wunderground v.1.15,2013-04-13 23:29:00,
2013-04-13 16:34:00,46.4,40.6,29.96,SSE,153,5.0,5.0,80,0.00,,,0.02,Wunderground v.1.15,2013-04-13 23:34:00,
2013-04-13 16:39:00,46.3,40.1,29.97,ENE,68,1.0,2.0,79,0.00,,,0.02,Wunderground v.1.15,2013-04-13 23:39:00,
2013-04-13 16:44:00,46.2,40.4,29.97,ENE,77,4.0,5.0,80,0.00,,,0.02,Wunderground v.1.15,2013-04-13 23:44:00,
2013-04-13 16:49:00,46.0,40.8,29.97,SSW,212,0.0,3.0,82,0.85,,,0.07,Wunderground v.1.15,2013-04-13 23:49:00,
2013-04-13 16:54:00,45.7,40.5,29.97,SE,138,1.0,5.0,82,1.45,,,0.17,Wunderground v.1.15,2013-04-13 23:54:00,
2013-04-13 16:59:00,45.2,40.3,29.97,NE,38,0.0,4.0,83,0.92,,,0.26,Wunderground v.1.15,2013-04-13 23:59:00,
2013-04-13 17:04:00,44.4,39.6,29.97,ESE,102,1.0,7.0,83,0.44,,,0.31,Wunderground v.1.15,2013-04-14 00:04:00,
2013-04-13 17:09:00,43.8,38.7,29.97,ESE,121,3.0,4.0,82,0.18,,,0.32,Wunderground v.1.15,2013-04-14 00:09:00,
2013-04-13 17:14:00,43.5,38.1,29.97,SE,125,2.0,4.0,81,0.13,,,0.33,Wunderground v.1.15,2013-04-14 00:14:00,
2013-04-13 17:19:00,43.5,38.1,29.97,SE,140,0.0,2.0,81,0.07,,,0.33,Wunderground v.1.15,2013-04-14 00:19:00,
2013-04-13 17:24:00,43.7,38.9,29.96,East,86,1.0,3.0,83,0.04,,,0.33,Wunderground v.1.15,2013-04-14 00:24:00,
2013-04-13 17:30:00,44.1,39.9,29.97,ENE,65,0.0,3.0,85,0.00,,,0.33,Wunderground v.1.15,2013-04-14 00:30:00,
2013-04-13 17:35:00,44.3,39.8,29.97,ENE,57,0.0,3.0,84,0.00,,,0.33,Wunderground v.1.15,2013-04-14 00:35:00,
2013-04-13 17:40:00,44.5,40.0,29.97,ENE,57,0.0,0.0,84,0.00,,,0.33,Wunderground v.1.15,2013-04-14 00:40:00,
2013-04-13 17:45:00,44.6,40.1,29.97,ESE,102,0.0,0.0,84,0.00,,,0.33,Wunderground v.1.15,2013-04-14 00:45:00,
2013-04-13 17:50:00,44.6,40.4,29.98,SSW,210,0.0,1.0,85,0.00,,,0.33,Wunderground v.1.15,2013-04-14 00:50:00,
2013-04-13 17:55:00,44.5,40.3,29.98,South,190,0.0,4.0,85,0.00,,,0.33,Wunderground v.1.15,2013-04-14 00:55:00,
2013-04-13 18:00:00,44.4,40.5,29.98,SSE,153,0.0,0.0,86,0.00,,,0.33,Wunderground v.1.15,2013-04-14 01:00:00,
2013-04-13 18:05:00,44.4,40.5,29.97,SE,140,1.0,4.0,86,0.00,,,0.33,Wunderground v.1.15,2013-04-14 01:05:00,
2013-04-13 18:10:00,44.4,40.5,29.98,SE,138,0.0,1.0,86,0.00,,,0.33,Wunderground v.1.15,2013-04-14 01:10:00,
2013-04-13 18:15:00,44.4,40.5,29.98,SSW,211,0.0,2.0,86,0.00,,,0.33,Wunderground v.1.15,2013-04-14 01:15:00,
2013-04-13 18:20:00,44.5,40.6,29.99,SSW,207,0.0,0.0,86,0.00,,,0.33,Wunderground v.1.15,2013-04-14 01:20:00,
2013-04-13 18:25:00,44.6,41.3,29.99,SSW,207,0.0,2.0,88,0.00,,,0.33,Wunderground v.1.15,2013-04-14 01:25:00,
2013-04-13 18:30:00,44.6,41.0,29.99,SSW,207,0.0,0.0,87,0.00,,,0.33,Wunderground v.1.15,2013-04-14 01:30:00,
2013-04-13 18:35:00,44.6,41.0,29.99,SSW,207,0.0,0.0,87,0.00,,,0.33,Wunderground v.1.15,2013-04-14 01:35:00,
2013-04-13 18:40:00,44.6,41.0,29.99,SSW,207,0.0,0.0,87,0.00,,,0.33,Wunderground v.1.15,2013-04-14 01:40:00,
2013-04-13 18:45:00,44.7,41.1,29.99,SSW,207,0.0,0.0,87,0.00,,,0.33,Wunderground v.1.15,2013-04-14 01:45:00,
2013-04-13 18:50:00,44.6,41.0,30.00,NNW,337,3.0,4.0,87,0.00,,,0.33,Wunderground v.1.15,2013-04-14 01:50:00,
2013-04-13 18:55:00,44.6,41.0,29.99,WNW,296,0.0,5.0,87,0.00,,,0.33,Wunderground v.1.15,2013-04-14 01:55:00,
2013-04-13 19:00:00,44.6,41.0,30.00,North,355,0.0,1.0,87,0.00,,,0.33,Wunderground v.1.15,2013-04-14 02:00:00,
2013-04-13 19:05:00,44.6,41.0,30.00,North,355,0.0,1.0,87,0.00,,,0.33,Wunderground v.1.15,2013-04-14 02:05:00,
2013-04-13 19:10:00,44.6,41.0,30.00,North,355,0.0,0.0,87,0.00,,,0.33,Wunderground v.1.15,2013-04-14 02:10:00,
2013-04-13 19:15:00,44.6,41.0,30.00,North,360,0.0,0.0,87,0.00,,,0.33,Wunderground v.1.15,2013-04-14 02:15:00,
2013-04-13 19:20:00,44.6,41.3,30.00,North,360,0.0,0.0,88,0.00,,,0.33,Wunderground v.1.15,2013-04-14 02:20:00,
2013-04-13 19:25:00,44.6,41.3,30.01,North,9,0.0,5.0,88,0.00,,,0.33,Wunderground v.1.15,2013-04-14 02:25:00,
2013-04-13 19:30:00,44.4,40.5,30.00,NE,42,0.0,1.0,86,0.00,,,0.33,Wunderground v.1.15,2013-04-14 02:30:00,
2013-04-13 19:35:00,44.3,40.4,30.01,NE,41,0.0,1.0,86,0.00,,,0.33,Wunderground v.1.15,2013-04-14 02:35:00,
2013-04-13 19:40:00,44.3,40.1,30.01,NNE,21,0.0,0.0,85,0.00,,,0.33,Wunderground v.1.15,2013-04-14 02:40:00,
2013-04-13 19:45:00,44.4,40.5,30.01,SSW,205,0.0,0.0,86,0.00,,,0.33,Wunderground v.1.15,2013-04-14 02:45:00,
2013-04-13 19:50:00,44.3,40.4,30.01,SSW,207,0.0,2.0,86,0.00,,,0.33,Wunderground v.1.15,2013-04-14 02:50:00,
2013-04-13 19:56:00,44.1,40.5,30.01,SW,225,0.0,4.0,87,0.00,,,0.33,Wunderground v.1.15,2013-04-14 02:56:00,
2013-04-13 20:01:00,43.9,40.3,30.01,SSW,207,0.0,5.0,87,0.00,,,0.33,Wunderground v.1.15,2013-04-14 03:01:00,
2013-04-13 20:06:00,43.8,40.2,30.02,South,189,0.0,5.0,87,0.00,,,0.33,Wunderground v.1.15,2013-04-14 03:06:00,
2013-04-13 20:12:00,43.6,40.3,30.02,South,189,0.0,3.0,88,0.00,,,0.33,Wunderground v.1.15,2013-04-14 03:12:00,
2013-04-13 20:17:00,43.5,40.2,30.02,SSW,200,0.0,3.0,88,0.00,,,0.33,Wunderground v.1.15,2013-04-14 03:17:00,
2013-04-13 20:22:00,43.5,40.2,30.03,SSW,200,0.0,0.0,88,0.00,,,0.33,Wunderground v.1.15,2013-04-14 03:22:00,
2013-04-13 20:27:00,43.4,40.1,30.03,SSW,200,0.0,0.0,88,0.00,,,0.33,Wunderground v.1.15,2013-04-14 03:27:00,
2013-04-13 20:32:00,43.4,40.4,30.03,SSW,200,0.0,0.0,89,0.00,,,0.33,Wunderground v.1.15,2013-04-14 03:32:00,
2013-04-13 20:37:00,43.4,40.4,30.03,SSW,200,0.0,0.0,89,0.00,,,0.33,Wunderground v.1.15,2013-04-14 03:37:00,
2013-04-13 20:42:00,43.3,40.3,30.04,SSW,200,0.0,0.0,89,0.00,,,0.33,Wunderground v.1.15,2013-04-14 03:42:00,
2013-04-13 20:47:00,43.3,40.3,30.04,WSW,250,0.0,4.0,89,0.00,,,0.34,Wunderground v.1.15,2013-04-14 03:47:00,
2013-04-13 20:52:00,43.2,40.2,30.04,WSW,250,0.0,0.0,89,0.00,,,0.34,Wunderground v.1.15,2013-04-14 03:52:00,
2013-04-13 20:57:00,43.1,39.8,30.04,West,259,0.0,4.0,88,0.10,,,0.35,Wunderground v.1.15,2013-04-14 03:57:00,
2013-04-13 21:00:00,43.1,39.8,30.04,WSW,248,0.0,0.0,88,0.09,,,0.35,Wunderground v.1.15,2013-04-14 04:00:00,
2013-04-13 21:05:00,43.1,39.8,30.03,WSW,246,0.0,0.0,88,0.05,,,0.35,Wunderground v.1.15,2013-04-14 04:05:00,
2013-04-13 21:10:00,43.1,39.8,30.03,WSW,242,0.0,0.0,88,0.04,,,0.36,Wunderground v.1.15,2013-04-14 04:10:00,
2013-04-13 21:15:00,43.1,39.8,30.04,WSW,242,0.0,0.0,88,0.04,,,0.36,Wunderground v.1.15,2013-04-14 04:15:00,
2013-04-13 21:20:00,43.1,39.8,30.04,SW,236,0.0,0.0,88,0.04,,,0.36,Wunderground v.1.15,2013-04-14 04:20:00,
2013-04-13 21:25:00,43.1,39.8,30.04,SSW,212,0.0,1.0,88,0.00,,,0.36,Wunderground v.1.15,2013-04-14 04:25:00,
2013-04-13 21:30:00,43.0,39.7,30.04,SSW,212,0.0,0.0,88,0.00,,,0.36,Wunderground v.1.15,2013-04-14 04:30:00,
2013-04-13 21:37:00,43.0,39.7,30.04,SSW,212,0.0,0.0,88,0.00,,,0.36,Wunderground v.1.15,2013-04-14 04:37:00,
2013-04-13 21:42:00,42.9,39.6,30.04,SSW,212,0.0,0.0,88,0.00,,,0.36,Wunderground v.1.15,2013-04-14 04:42:00,
2013-04-13 21:47:00,42.9,39.9,30.04,SSW,212,0.0,0.0,89,0.00,,,0.36,Wunderground v.1.15,2013-04-14 04:47:00,
2013-04-13 21:52:00,42.9,39.9,30.04,SSW,212,0.0,0.0,89,0.00,,,0.36,Wunderground v.1.15,2013-04-14 04:52:00,
2013-04-13 21:57:00,42.9,39.9,30.04,SSW,212,0.0,0.0,89,0.00,,,0.37,Wunderground v.1.15,2013-04-14 04:57:00,
2013-04-13 22:02:00,42.9,39.9,30.04,SSW,212,0.0,2.0,89,0.00,,,0.37,Wunderground v.1.15,2013-04-14 05:02:00,
2013-04-13 22:07:00,42.8,39.8,30.05,SW,216,1.0,5.0,89,0.00,,,0.37,Wunderground v.1.15,2013-04-14 05:07:00,
2013-04-13 22:12:00,42.8,40.1,30.05,SW,216,0.0,1.0,90,0.00,,,0.37,Wunderground v.1.15,2013-04-14 05:12:00,
2013-04-13 22:17:00,42.8,40.1,30.05,SSW,208,0.0,1.0,90,0.00,,,0.37,Wunderground v.1.15,2013-04-14 05:17:00,
2013-04-13 22:22:00,42.7,40.0,30.05,SSW,208,0.0,0.0,90,0.00,,,0.37,Wunderground v.1.15,2013-04-14 05:22:00,
2013-04-13 22:27:00,42.7,40.0,30.05,SW,234,2.0,4.0,90,0.00,,,0.37,Wunderground v.1.15,2013-04-14 05:27:00,
2013-04-13 22:32:00,42.6,39.9,30.06,SW,228,0.0,2.0,90,0.00,,,0.37,Wunderground v.1.15,2013-04-14 05:32:00,
2013-04-13 22:37:00,42.5,39.8,30.06,SW,228,0.0,2.0,90,0.00,,,0.38,Wunderground v.1.15,2013-04-14 05:37:00,
2013-04-13 22:42:00,42.5,39.8,30.06,West,268,2.0,4.0,90,0.16,,,0.39,Wunderground v.1.15,2013-04-14 05:42:00,
2013-04-13 22:47:00,42.2,39.2,30.06,West,271,0.0,5.0,89,0.12,,,0.40,Wunderground v.1.15,2013-04-14 05:47:00,
2013-04-13 22:52:00,42.0,38.7,30.06,West,271,0.0,2.0,88,0.18,,,0.42,Wunderground v.1.15,2013-04-14 05:52:00,
2013-04-13 22:57:00,41.9,38.6,30.06,WSW,253,0.0,6.0,88,0.18,,,0.44,Wunderground v.1.15,2013-04-14 05:57:00,
2013-04-13 23:03:00,41.8,38.5,30.06,WSW,253,0.0,1.0,88,0.11,,,0.44,Wunderground v.1.15,2013-04-14 06:03:00,
2013-04-13 23:08:00,41.9,38.6,30.06,WSW,243,0.0,1.0,88,0.08,,,0.45,Wunderground v.1.15,2013-04-14 06:08:00,
2013-04-13 23:13:00,41.9,38.9,30.06,South,185,0.0,4.0,89,0.43,,,0.48,Wunderground v.1.15,2013-04-14 06:13:00,
2013-04-13 23:18:00,41.8,38.8,30.06,SW,229,0.0,6.0,89,0.27,,,0.51,Wunderground v.1.15,2013-04-14 06:18:00,
2013-04-13 23:23:00,41.7,38.7,30.06,SW,227,0.0,1.0,89,0.10,,,0.51,Wunderground v.1.15,2013-04-14 06:23:00,
2013-04-13 23:28:00,41.6,38.6,30.06,SSW,193,0.0,5.0,89,0.05,,,0.51,Wunderground v.1.15,2013-04-14 06:28:00,
2013-04-13 23:33:00,41.5,38.5,30.06,SSW,196,0.0,3.0,89,0.04,,,0.51,Wunderground v.1.15,2013-04-14 06:33:00,
2013-04-13 23:38:00,41.4,38.7,30.06,SSW,196,0.0,3.0,90,0.00,,,0.51,Wunderground v.1.15,2013-04-14 06:38:00,
2013-04-13 23:43:00,41.4,38.7,30.06,SSW,199,1.0,2.0,90,0.00,,,0.51,Wunderground v.1.15,2013-04-14 06:43:00,
2013-04-13 23:48:00,41.4,38.7,30.07,West,263,2.0,5.0,90,0.00,,,0.51,Wunderground v.1.15,2013-04-14 06:48:00,
2013-04-13 23:54:00,41.3,38.6,30.07,West,263,0.0,3.0,90,0.08,,,0.52,Wunderground v.1.15,2013-04-14 06:54:00,
2013-04-13 23:59:00,41.3,38.6,30.07,West,259,5.0,5.0,90,0.07,,,0.52,Wunderground v.1.15,2013-04-14 06:59:00,